TimeCST,TemperatureF,Dew PointF,Humidity,Sea Level PressureIn,VisibilityMPH,Wind Direction,Wind SpeedMPH,Gust SpeedMPH,PrecipitationIn,Events,Conditions,WindDirDegrees,DateUTC
12:54 AM,35.1,30.0,82,30.18,10.0,SE,6.9,-,N/A,,Clear,140,2012-11-08 06:54:00
1:54 AM,35.1,30.0,82,30.19,10.0,SSE,5.8,-,N/A,,Clear,150,2012-11-08 07:54:00
2:54 AM,34.0,30.0,85,30.19,10.0,SSE,6.9,-,N/A,,Clear,160,2012-11-08 08:54:00
3:54 AM,34.0,30.0,85,30.18,10.0,SE,6.9,-,N/A,,Clear,140,2012-11-08 09:54:00
4:54 AM,33.1,30.0,89,30.18,10.0,SSE,8.1,-,N/A,,Clear,150,2012-11-08 10:54:00
5:54 AM,33.1,30.0,89,30.17,10.0,SE,6.9,-,N/A,,Clear,140,2012-11-08 11:54:00
6:54 AM,33.1,30.0,89,30.17,10.0,SE,8.1,-,N/A,,Clear,130,2012-11-08 12:54:00
7:54 AM,36.0,32.0,86,30.18,10.0,SSE,8.1,-,N/A,,Clear,150,2012-11-08 13:54:00
8:54 AM,43.0,34.0,71,30.18,10.0,SSE,15.0,-,N/A,,Clear,160,2012-11-08 14:54:00
9:54 AM,46.9,35.1,63,30.17,10.0,South,12.7,-,N/A,,Clear,180,2012-11-08 15:54:00
10:54 AM,51.1,37.0,59,30.15,10.0,South,10.4,-,N/A,,Clear,180,2012-11-08 16:54:00
11:54 AM,55.9,37.0,49,30.11,10.0,SE,11.5,-,N/A,,Clear,140,2012-11-08 17:54:00
12:54 PM,57.9,37.9,47,30.08,10.0,SE,10.4,-,N/A,,Clear,130,2012-11-08 18:54:00
1:54 PM,60.1,37.0,42,30.05,10.0,SSE,15.0,-,N/A,,Clear,150,2012-11-08 19:54:00
2:54 PM,61.0,36.0,39,30.04,10.0,SE,12.7,-,N/A,,Clear,140,2012-11-08 20:54:00
3:54 PM,60.1,37.0,42,30.03,10.0,SE,13.8,19.6,N/A,,Clear,130,2012-11-08 21:54:00
4:54 PM,57.0,37.0,47,30.02,10.0,SE,12.7,-,N/A,,Clear,140,2012-11-08 22:54:00
5:54 PM,55.0,37.0,51,30.01,10.0,SE,12.7,-,N/A,,Clear,140,2012-11-08 23:54:00
6:54 PM,54.0,37.0,53,30.02,10.0,SSE,13.8,-,N/A,,Clear,150,2012-11-09 00:54:00
7:54 PM,54.0,36.0,51,30.01,10.0,SSE,13.8,-,N/A,,Clear,150,2012-11-09 01:54:00
9:54 PM,48.9,37.0,64,30.04,10.0,SSE,8.1,-,N/A,,Clear,160,2012-11-09 03:54:00
10:54 PM,48.9,37.0,64,30.02,10.0,SSE,10.4,-,N/A,,Clear,150,2012-11-09 04:54:00
11:54 PM,50.0,37.9,63,30.01,10.0,South,10.4,-,N/A,,Clear,170,2012-11-09 05:54:00